{"data":{"norad_id":63412,"intl_designator":"2025-065P","name":"STARLINK-33645","alt_names":[],"object_type":"PAYLOAD","status":"ACTIVE","operator":null,"country":"US","launch_date":"2025-03-31","launch_site_code":"AFETR","launch_vehicle":null,"mission":null,"orbit_class":"UNKNOWN","rcs_meters":null,"size_class":null,"mass_kg":null,"dimensions":null,"purposes":["comms"],"wikipedia_slug":null,"has_3d_model":false,"image_url":null,"decayed_at":null,"tle_current":{"epoch":"2026-09-20T21:06:18.304992Z","epoch_age_seconds":126119,"freshness":"FRESH","line1":"1 63412U 25065P   26263.87937853  .00016860  00000+0  62081-3 0  9993","line2":"2 63412  42.9997  87.9663 0001638 270.7024  89.3640 15.27579589 82656","mean_motion":15.27579589,"eccentricity":0.0001638,"inclination_deg":42.9997,"raan_deg":87.9663,"arg_perigee_deg":270.7024,"mean_anomaly_deg":89.364,"bstar":0.00062081,"rev_number":8265,"period_min":94.266774076411,"perigee_km":481.92646423767,"apogee_km":484.1741892059,"semimajor_km":6861.1873267218,"source":"CELESTRAK","updated_at":"2026-09-21T09:00:34.980373Z"}}}